DW7229 Weather Reports


time (UTC)temp
F
wind
direction
speed
knots
gust
knots
rain 1hr
in
rain 24hr
in
rain mn
in
humidity
%
barometer
mb
20260510183020 74 165 3.5 6.1 0.00 0.00 0.00 49 1010.7
20260510182038 73 242 2.6 4.3 0.00 0.00 0.00 51 1010.8
20260510181015 74 222 1.7 5.2 0.00 0.00 0.00 51 1010.9
20260510180030 73 198 1.7 4.3 0.00 0.00 0.00 52 1011.1
20260510175016 72 188 1.7 8.7 0.00 0.00 0.00 52 1011.2
20260510174019 71 0.0 0.0 0.00 0.00 0.00 55 1011.3
20260510173022 71 187 0.0 1.7 0.00 0.00 0.00 55 1011.4
20260510172025 70 259 0.9 3.5 0.00 0.00 0.00 56 1011.4
20260510171029 70 230 2.6 5.2 0.00 0.00 0.00 56 1011.5
20260510170032 70 220 1.7 3.5 0.00 0.00 0.00 55 1011.7
20260510165017 68 258 2.6 6.1 0.00 0.00 0.00 59 1011.6
20260510164020 68 292 1.7 3.5 0.00 0.00 0.00 61 1011.6
20260510163024 68 311 1.7 4.3 0.00 0.00 0.00 58 1011.8
20260510162027 68 225 2.6 6.1 0.00 0.00 0.00 58 1011.7
20260510161030 69 228 0.9 4.3 0.00 0.00 0.00 58 1011.8
20260510160015 67 178 1.7 6.1 0.00 0.00 0.00 60 1011.9
20260510155019 68 143 0.9 3.5 0.00 0.00 0.00 60 1011.9
20260510154022 67 135 0.9 3.5 0.00 0.00 0.00 60 1011.9
20260510153105 67 100 0.9 3.5 0.00 0.00 0.00 62 1011.8
20260510152109 65 241 0.9 3.5 0.00 0.00 0.00 63 1012.0
20260510151026 66 261 0.9 2.6 0.00 0.00 0.00 63 1012.2
20260510150017 64 0.0 0.0 0.00 0.00 0.00 65 1012.1
20260510145020 65 126 0.0 1.7 0.00 0.00 0.00 64 1012.2
20260510144018 63 150 0.9 3.5 0.00 0.00 0.00 66 1012.2
20260510143015 62 182 0.9 3.5 0.00 0.00 0.00 68 1012.2
20260510142030 60 249 0.9 3.5 0.00 0.00 0.00 70 1012.4
20260510141015 59 277 1.7 3.5 0.00 0.00 0.00 73 1012.5
20260510140019 58 23 0.9 2.6 0.00 0.00 0.00 75 1012.5
20260510135022 57 265 1.7 5.2 0.00 0.00 0.00 76 1012.5
20260510134026 56 245 1.7 4.3 0.00 0.00 0.00 78 1012.5
20260510133029 56 270 0.0 2.6 0.00 0.00 0.00 79 1012.4
20260510132032 56 225 0.0 2.6 0.00 0.00 0.00 80 1012.4
20260510131017 55 270 1.7 4.3 0.00 0.00 0.00 80 1012.4
20260510130020 55 222 1.7 4.3 0.00 0.00 0.00 82 1012.3
20260510125024 55 203 0.9 3.5 0.00 0.00 0.00 83 1012.4
20260510124027 55 0.0 0.0 0.00 0.00 0.00 84 1012.3
20260510123050 55 0.0 0.0 0.00 0.00 0.00 84 1012.3
20260510122056 54 0.0 0.9 0.00 0.00 0.00 85 1012.3
20260510121019 54 203 0.0 2.6 0.00 0.00 0.00 86 1012.0
20260510120022 53 0.0 0.0 0.00 0.00 0.00 88 1012.0
20260510115026 53 248 0.0 1.7 0.00 0.00 0.00 90 1012.3
20260510114029 53 0.0 0.0 0.00 0.00 0.00 95 1012.4
20260510113026 53 0.0 0.0 0.00 0.00 0.00 95 1012.3
20260510112017 52 0.0 0.0 0.00 0.00 0.00 95 1011.8
20260510111041 52 0.0 0.0 0.00 0.00 0.00 95 1011.8
20260510110018 52 0.0 0.0 0.00 0.00 0.00 95 1011.6
20260510105015 51 0.0 0.0 0.00 0.00 0.00 95 1011.6
20260510104031 50 0.0 0.0 0.00 0.00 0.00 95 1011.5
20260510103016 50 0.0 0.0 0.00 0.00 0.00 95 1011.5
20260510102019 50 0.0 0.0 0.00 0.00 0.00 95 1011.7
20260510101023 50 0.0 0.0 0.00 0.00 0.00 95 1011.7
20260510100026 50 0.0 0.0 0.00 0.00 0.00 95 1011.6
20260510095029 50 225 0.0 2.6 0.00 0.00 0.00 95 1011.6
20260510094033 50 195 0.0 1.7 0.00 0.00 0.00 95 1011.5
20260510093018 50 0.0 0.0 0.00 0.00 0.00 95 1011.4
20260510092021 50 0.0 0.0 0.00 0.00 0.00 94 1011.3
20260510091025 49 0.0 0.0 0.00 0.00 0.00 93 1011.4
20260510090048 49 0.0 0.0 0.00 0.00 0.00 92 1011.2
20260510085051 49 0.0 0.0 0.00 0.00 0.00 91 1011.3
20260510084016 48 0.0 0.0 0.00 0.00 0.00 90 1011.3
20260510083020 48 0.0 0.0 0.00 0.00 0.00 89 1011.2
20260510082023 48 0.0 0.0 0.00 0.00 0.00 89 1011.2
20260510081106 48 0.0 0.0 0.00 0.00 0.00 89 1011.2
20260510080030 48 0.0 0.0 0.00 0.00 0.00 89 1011.1
20260510075015 48 0.0 0.0 0.00 0.00 0.00 88 1011.0
20260510074038 48 0.0 0.0 0.00 0.00 0.00 88 1010.9
20260510073041 48 0.0 0.0 0.00 0.00 0.00 88 1010.7
20260510072019 48 0.0 0.0 0.00 0.00 0.00 88 1010.8
20260510071016 48 0.0 0.0 0.00 0.00 0.00 88 1011.0
20260510070032 48 0.0 0.0 0.00 0.00 0.00 88 1010.8
20260510065017 47 0.0 0.0 0.00 0.00 0.00 88 1010.9
20260510064020 47 0.0 0.0 0.00 0.00 0.00 88 1010.9
20260510063024 47 0.0 0.0 0.00 0.00 0.00 88 1010.9
20260510062027 47 0.0 0.0 0.00 0.00 0.00 88 1010.7
20260510061030 47 0.0 0.0 0.00 0.00 0.00 88 1011.0
20260510060015 48 0.0 0.0 0.00 0.00 0.00 88 1011.3
20260510055018 48 0.0 0.0 0.00 0.00 0.00 88 1011.4
20260510054042 48 0.0 0.0 0.00 0.00 0.00 87 1011.5
20260510053045 48 0.0 0.0 0.00 0.00 0.00 87 1011.5
20260510052028 48 0.0 0.0 0.00 0.00 0.00 87 1011.5
20260510051031 48 0.0 0.0 0.00 0.00 0.00 87 1011.6
20260510050017 48 0.0 0.0 0.00 0.00 0.00 87 1011.5
20260510045020 48 0.0 0.0 0.00 0.00 0.00 87 1011.5
20260510044023 48 0.0 0.0 0.00 0.00 0.00 87 1011.5
20260510043027 48 0.0 0.0 0.00 0.00 0.00 87 1011.5
20260510042050 48 0.0 0.0 0.00 0.00 0.00 87 1011.3
20260510041015 48 0.0 0.0 0.00 0.00 0.00 86 1011.9
20260510040019 48 0.0 0.0 0.00 0.00 0.00 86 1011.8
20260510035022 48 0.0 0.0 0.00 0.00 0.00 85 1011.9
20260510034019 48 0.0 0.0 0.00 0.00 0.00 85 1011.9
20260510033016 48 0.0 0.0 0.00 0.00 0.00 85 1012.0
20260510032032 48 0.0 0.0 0.00 0.00 0.00 85 1012.3
20260510031017 48 0.0 0.0 0.00 0.00 0.00 85 1012.4
20260510030020 48 0.0 0.0 0.00 0.00 0.00 85 1012.4
20260510025023 48 0.0 0.0 0.00 0.00 0.00 85 1012.4
20260510024027 47 0.0 0.0 0.00 0.00 0.00 85 1012.4
20260510023030 47 0.0 0.0 0.00 0.00 0.00 85 1012.5
20260510022015 47 0.0 0.0 0.00 0.00 0.00 84 1012.6
20260510021039 47 0.0 0.0 0.00 0.00 0.00 83 1012.8
20260510020022 47 0.0 0.0 0.00 0.00 0.00 83 1012.6
20260510015025 47 0.0 0.0 0.00 0.00 0.00 83 1012.6
20260510014049 47 0.0 0.0 0.00 0.00 0.00 83 1012.6
20260510013052 47 0.0 0.0 0.00 0.00 0.00 83 1012.6
20260510012057 47 0.0 0.0 0.00 0.00 0.00 83 1012.5
20260510011020 47 0.0 0.0 0.00 0.00 0.00 82 1012.4
20260510010024 47 0.0 0.0 0.00 0.00 0.00 82 1012.4
20260510005026 47 0.0 0.0 0.00 0.00 0.00 82 1012.6
20260510004030 47 0.0 0.0 0.00 0.00 0.00 82 1012.6
20260510003035 47 0.0 0.0 0.00 0.00 0.00 82 1012.5
20260510002019 47 0.0 0.0 0.00 0.00 0.00 82 1012.4
20260510001021 47 0.0 0.0 0.00 0.00 0.00 82 1012.4
20260510000039 47 0.0 0.0 0.00 0.00 0.00 82 1012.5
20260509235016 47 0.0 0.0 0.00 0.00 0.00 82 1012.4
20260509234052 47 0.0 0.0 0.00 0.00 0.00 81 1012.3
20260509233017 47 0.0 0.0 0.00 0.00 0.00 81 1012.2
20260509232020 47 0.0 0.0 0.00 0.00 0.00 81 1012.1
20260509231023 47 0.0 0.0 0.00 0.00 0.00 81 1011.9
20260509230027 47 0.0 0.0 0.00 0.00 0.00 81 1012.1
20260509225030 47 0.0 0.0 0.00 0.00 0.00 81 1012.3
20260509224015 47 0.0 0.0 0.00 0.00 0.00 81 1012.4
20260509223018 47 0.0 0.0 0.00 0.00 0.00 80 1012.4
20260509222022 48 0.0 0.0 0.00 0.00 0.00 80 1012.6
20260509221025 48 0.0 0.0 0.00 0.00 0.00 80 1012.6
20260509220028 48 0.0 0.0 0.00 0.00 0.00 80 1012.5
20260509215032 48 0.0 0.0 0.00 0.00 0.00 80 1012.6
20260509214057 48 0.0 0.0 0.00 0.00 0.00 80 1012.7
20260509213020 48 0.0 0.0 0.00 0.00 0.00 80 1012.8
20260509212023 48 0.0 0.0 0.00 0.00 0.00 80 1012.6
20260509211027 48 0.0 0.0 0.00 0.00 0.00 80 1012.6
20260509210030 48 0.0 0.0 0.00 0.00 0.00 80 1012.6
20260509205035 49 0.0 0.0 0.00 0.00 0.00 80 1012.8
20260509204018 49 0.0 0.0 0.00 0.00 0.00 80 1012.9
20260509203042 49 0.0 0.0 0.00 0.00 0.00 80 1013.0
20260509202019 49 0.0 0.0 0.00 0.00 0.00 80 1013.2
20260509201016 50 0.0 0.0 0.00 0.00 0.00 80 1013.0
20260509200032 50 0.0 0.0 0.00 0.00 0.00 80 1012.5
20260509195037 50 0.0 0.0 0.00 0.00 0.00 81 1012.2
20260509194040 49 0.0 0.0 0.00 0.00 0.00 82 1012.4
20260509193043 49 0.0 0.0 0.00 0.00 0.00 82 1012.7
20260509192047 49 0.0 0.0 0.00 0.00 0.00 82 1012.5
20260509191030 48 0.0 0.0 0.00 0.00 0.00 82 1012.8
20260509190015 49 0.0 0.0 0.00 0.00 0.00 82 1013.0
20260509185018 48 0.0 0.0 0.00 0.00 0.00 80 1013.3
20260509184021 49 0.0 0.0 0.00 0.00 0.00 77 1013.4